2020-053A

Last updated on Wed Apr 21 2021 08:06:39 GMT+0000 (Coordinated Universal Time)

1 45985U 20053A 21110.94109468 -.00000281 00000-0 00000-0 0 9999 2 45985 0.0338 357.8930 0000124 290.0294 356.6354 1.00271068 2756
UTC large
Height (km)
Speed (km/s)
/
Latitude / Longitude
Inclination (degrees)
Orbital Period (minutes)
Azimuth
Elevation
Range (km)
Doppler Factor

Next 0 passes for location: London (51.5072 / 0.1276)

Sorry there are no passes over London.
2020-053A